Regional Weather Roundup
Issued by NWS Grand Forks, ND

Home | Current Version | Previous Version | Text Only | Print | Product List | Glossary Off
Versions: 1 2 3 4 5 6 7 8 9 10 11 12 13 14 15 16 17 18 19 20 21 22 23 24 25 26 27 28 29 30 31 32 33 34 35 36 37 38 39 40 41 42 43 44 45 46 47 48 49 50

000
ASUS43 KFGF 012031
RWRFGF
PRAIRIE TO PINES  WEATHER ROUNDUP
NATIONAL WEATHER SERVICE EASTERN NORTH DAKOTA/GRAND FORKS ND
300 PM CDT FRI JUL 01 2022

 **SATELLITE DATA USED TO AUGMENT SKY COVER AT AUTOMATED STATIONS**
 *****  WEATHER ACROSS EASTERN NORTH DAKOTA  *****

CITY           SKY/WX    TMP DP  RH WIND       PRES   REMARKS
GRAND FORKS    PTSUNNY   75  50  41 W10       29.96F
GRAND FRKS AFB PTSUNNY   75  49  39 W9        29.97F
GRAND FRKS NWS   N/A     75  51  42 W10       29.92F
DEVILS LAKE    PTSUNNY   74  49  41 NW13      30.00F
FARGO          FAIR      79  45  29 W9        29.99F
WAHPETON ARPT  FAIR      79  48  34 NW10G17   29.98F
$$

 ***** WEATHER ACROSS CENTRAL AND WESTERN NORTH DAKOTA  *****

CITY           SKY/WX    TMP DP  RH WIND       PRES   REMARKS
BISMARCK       FAIR      85  48  27 W8G17     30.01F
MINOT          FAIR      80  48  32 W13G25    29.98F
JAMESTOWN      PTSUNNY   78  50  37 W15       29.99F
MINOT AFB      FAIR      80  25  13 N10G20    29.97S
GARRISON         N/A     80  49  33 W9        30.01F
WILLISTON      NOT AVBL
DICKINSON      FAIR      79  48  33 W5        30.02F
HETTINGER      FAIR      81  47  30 CALM      30.05F
$$

 *****  OTHER AIRPORT OBSERVATIONS IN OUR AREA  *****

CITY           SKY/WX    TMP DP  RH WIND       PRES   REMARKS
WALHALLA       NOT AVBL
GRAFTON AIRPOR FAIR      75  48  38 NW14      29.97S
VALLEY CITY AR FAIR      79  52  38 NW10G17   30.00F
CANDO          FAIR      77  54  44 NW16G22   30.00F
CAVALIER APRT  MOCLDY    73  48  40 N10       29.97S
GWINNER        PTCLDY    81  55  41 W12       30.00F
SHEYENNE NWR     N/A     81  50  33 NW9       29.95S
ROLLA          FAIR      73  46  38 NW14G21   30.01S
 ***** THE ABOVE OBSERVATIONS ARE NON NWS ARE NOT QUALITY
       CONTROLLED AND MAY MIS-REPORT RAIN FOR SNOW...
$$

  *****  WEATHER ACROSS NORTHERN MINNESOTA  *****

CITY           SKY/WX    TMP DP  RH WIND       PRES   REMARKS
FLAG ISLAND    NOT AVBL
WARROAD        FAIR      72  48  43 W15G23    29.95S
ROSEAU           N/A     73  43  33 W16G23    29.95F
HALLOCK        FAIR      75  45  33 NW13      29.96S
THF RVR FALLS  PTSUNNY   73  46  38 W17       29.98F
BAUDETTE       FAIR      73  46  38 NW18G28   29.94S
WASKISH        FAIR      73  48  40 W15G24    29.95S
CROOKSTON      FAIR      75  46  35 NW14      29.98S
STEPHEN NDAWN    N/A     73  50  43 NW10        N/A
GREENBUSH NDAW   N/A     72  46  40 MISG        N/A
$$
  *****  WEATHER ACROSS CENTRAL AND WEST MINNESOTA  *****

CITY           SKY/WX    TMP DP  RH WIND       PRES   REMARKS
FOSSTON        NOT AVBL
BEMIDJI        FAIR      73  46  37 NW13G23   29.99S
PARK RAPIDS    FAIR      75  44  33 NW22G35   30.01S
ELBOW LAKE     FAIR      77  50  38 NW10      30.02F
WADENA         SUNNY     73  48  40 NW9       30.02S
DETROIT LAKES  FAIR      75  46  35 NW13      30.01F
MOORHEAD       FAIR      79  46  31 NW13      29.99F
FERGUS FALLS   FAIR      81  50  34 NW15      29.98F
MORRIS MN      FAIR      82  37  20 NW15G23   30.02F
STAPLES          N/A     79  45  29 NW16      30.01F
$$
  *****  WEATHER ELSEWHERE ACROSS MINNESOTA  *****

CITY           SKY/WX    TMP DP  RH WIND       PRES   REMARKS
DULUTH         FAIR      73  45  36 NW15G31   29.93R
INTRNTL FALLS  FAIR      71  45  39 NW20G37   29.90R
ELY              N/A     70  39  32 W17G25    29.91S
CLOQUET          N/A     73  43  33 W18G26    29.93S
WHEATON        FAIR      81  46  30 W10G18    30.02F
BRAINERD       FAIR      77  44  30 NW20G33   30.00S
HIBBING        FAIR      70  46  42 NW20G28   29.94S
ALEXANDRIA     FAIR      78  48  34 W13       30.04F
SAINT CLOUD    FAIR      79  48  33 NW15G26   30.00S
MINNEAPOLIS    PTSUNNY   83  47  28 NW16G32   29.98F
$$

  *****  WEATHER ACROSS SOUTH DAKOTA  *****

CITY           SKY/WX    TMP DP  RH WIND       PRES   REMARKS
SIOUX FALLS    FAIR      86  53  32 W7        30.05F
BROOKINGS      FAIR      83  47  28 VRB7      30.06F
WATERTOWN      FAIR      81  50  33 MISG      30.05F
HURON          FAIR      83  47  28 VRB5      30.04F
SISSETON         N/A     84  49  29 W14G20    30.00F
ABERDEEN       FAIR      87  52  29 W9G23     30.02F
MITCHELL       FAIR      85  50  29 NW5       30.04F
PIERRE         FAIR      84  51  31 CALM      30.02F
MOBRIDGE       FAIR      85  51  31 CALM      30.00F
RAPID CITY     FAIR      85  53  33 S15G26    30.03F
$$

  *****  SOME WEATHER IN NEARBY STATES *****

CITY           SKY/WX    TMP DP  RH WIND       PRES   REMARKS
GLASGOW MT     FAIR      81  44  27 MISG      30.00F
GREAT FALLS MT FAIR      80  40  23 SW5       30.01F
CHEYENNE WY    FAIR      78  47  33 VRB5G17   30.20F
SCOTTSBLUFF NE FAIR      81  59  47 S10       30.12F
OMAHA NE       PTSUNNY   75  62  64 VRB7      30.06F
DES MOINES IA  LGT RAIN  72  63  73 W5        30.05F
DAVENPORT IA   FAIR      77  63  61 NW6       30.03S
CHICAGO IL     CLOUDY    75  55  49 E7        29.97F
EAU CLAIRE WI  FAIR      80  49  33 W15G24    29.97S
LA CROSSE WI   FAIR      78  57  48 SW9       30.01F
$$

  *****  SOME NATIONAL WEATHER *****

CITY           SKY/WX    TMP DP  RH WIND       PRES   REMARKS
LA GUARDIA NY  PTSUNNY   92  66  42 S14       29.95F HX  94
RALEIGH NC     PTSUNNY   91  69  48 S15       30.08F HX  96
ATLANTA GA     PTSUNNY   78  69  73 E5        30.09F
NEW ORLEANS LA LGT RAIN  78  76  93 NW3       30.04S
OKLAHOMA CITY  FAIR      95  66  38 S12       29.94F HX  98
ALBUQUERQUE NM FAIR      86  48  26 W8        30.14F
SALT LAKE CITY TSTM      91  43  18 VRB6      29.99F
LOS ANGELES CA FAIR      74  61  63 SW12G20   29.99S
BOISE ID       FAIR      87  39  18 VRB6      29.93F
SEATTLE WA     FAIR      69  55  60 S9        30.09F
$$

*** WEATHER ACROSS MANITOBA...SASKATCHEWAN AND ONTARIO ***
                ***ONTARIO***

CITY           SKY/WX    TMP DP  RH WIND       PRES   REMARKS
GERALDTON      NOT AVBL
THUNDER BAY    PTSUNNY   72  50  46 S12       29.78F
SIOUX LOOKOUT  MOSUNNY   64  39  39 W18G30    29.84R
TORONTO        PTSUNNY   84  63  48 SW14      29.83F
BIG TROUT LK   LGT RAIN  46  45  93 W25G36    29.44F
PICKLE LAKE      N/A     59  28  31 MISG      29.69F
DRYDEN         MOSUNNY   66  37  34 W17G32    29.84F
KENORA         MOSUNNY   66  37  34 NW9G26    29.91S
$$
                *** MANITOBA***

CITY           SKY/WX    TMP DP  RH WIND       PRES   REMARKS
BRANDON        MOSUNNY   73  43  33 W8        29.99S
DAUPHIN        MOSUNNY   70  45  40 N10       29.99S
ISLAND LAKE    CLOUDY    55  43  62 NW22G35   29.78R
PILOT MOUND      N/A     72  48  43 W12G21      N/A
THE PAS        SUNNY     63  37  39 NW14G21   30.01S
THOMPSON       CLOUDY    57  41  54 N16G26    29.90R
WINNIPEG       MOSUNNY   70  39  32 NW22G29   29.98R
LYNN LAKE      PTSUNNY   61  37  41 N18       30.00S
CHURCHILL      PTSUNNY   43  37  81 N26G35    29.73R
GILLAM         DRIZZLE   52  48  87 N35G47    29.71R
$$
                ***SASKATCHEWAN***

CITY           SKY/WX    TMP DP  RH WIND       PRES   REMARKS
ESTEVAN        MOSUNNY   73  50  43 NW9       30.01S
KINDERSLEY     MOSUNNY   72  52  49 SW5       30.00S
LLOYDMINSTER   PTSUNNY   66  50  55 E12       30.00F
PRINCE ALBERT  PTSUNNY   54  50  87 NW3       30.10S
REGINA         MOSUNNY   72  32  23 VRB3      30.02S
YORKTON        NOT AVBL
N. BATTLEFORD  NOT AVBL
LA RONGE       PTSUNNY   63  43  48 E6        30.09S
SASKATOON      MOSUNNY   70  43  37 E15       30.02S
SWIFT CURRENT  MOSUNNY   73  50  43 SE7       30.01S
$$
NOTE: THESE ARE AUTOMATED STATIONS WITH LIMITED QUALITY CONTROL
      "FAIR" INDICATES FEW OR NO CLOUDS BELOW 12,000 FEET WITH NO
      SIGNIFICANT WEATHER AND/OR OBSTRUCTIONS TO VISIBILITY.
      SKY/WX - SKY CONDITION AND SIGNIFICANT WEATHER.
      TMP - AIR TEMPERATURE.    DP   - DEWPOINT TEMPERATURE.
      RH  - RELATIVE HUMIDITY.  PRES - PRESSURE.
      HX  - HEAT INDEX.         WCI  - WIND CHILL INDEX.
$



USA.gov is the U.S. government's official web portal to all federal, state and local government web resources and services.